Location: Amherst
(42.3800°N, 72.5240°W)
Time: 10:47:15
(UTC-04:00)

ISS - Pass Details

Date: 21 May 2021
Orbit: 417 x 422 km, 51.6° (Epoch: 14 June)

Event Time Altitude Azimuth Distance (km) Brightness Sun altitude
Rises 00:45:40 0° 306° (NW) 2,370 0.6 -27.4°
Reaches altitude 10° 00:47:51 10° 314° (NW) 1,505 -0.4 -27.4°
Enters shadow 00:48:45 16° 321° (NW) 1,172 -1.0 -27.4°
